Location: Camaret
(48.2753°N, 4.5961°W)
Time: 01:23:16
(UTC+00:00)

Cosmos 1354 Rocket - Pass Details

Date: 29 October 2020
Orbit: 764 x 783 km, 74.0° (Epoch: 26 November)

Event Time Altitude Azimuth Distance (km) Brightness Sun altitude
Rises 19:08:58 0° 335° (NNW) 3,249 7.6 -21.3°
Reaches altitude 10° 19:11:22 10° 333° (NNW) 2,320 6.9 -21.7°
Maximum altitude 19:16:35 67° 251° (WSW) 835 4.3 -22.6°
Enters shadow 19:21:33 11° 170° (S) 2,218 6.2 -23.4°
